N1PLV Weather Reports


Display with metric or nautical units.
time (UTC)temp
F
wind
direction
speed
MPH
gust
MPH
rain 1hr
in
rain 24hr
in
rain mn
in
humidity
%
barometer
mb
20221206101453 60 147 5.0 9.0 0.02 0.04 0.04 92 1024.1
20221206094454 60 164 4.0 7.0 0.03 0.04 0.04 92 1023.9
20221206092954 60 156 3.0 8.0 0.03 0.04 0.04 92 1023.9
20221206085953 58 178 0.0 2.0 0.01 0.01 0.01 91 1023.6
20221206084453 58 173 2.0 4.0 0.01 0.01 0.01 91 1023.5
20221206082953 58 180 2.0 5.0 0.01 0.01 0.01 90 1023.5
20221206081453 59 205 4.0 10.0 0.00 0.00 0.00 90 1023.5
20221206074453 61 208 4.0 10.0 0.00 0.00 0.00 90 1023.4
20221206071453 60 138 5.0 9.0 0.00 0.00 0.00 90 1023.3
20221206065953 60 163 4.0 8.0 0.00 0.00 0.00 91 1023.2
20221206064453 60 117 3.0 6.0 0.00 0.00 0.00 90 1022.9
20221206062953 60 109 3.0 6.0 0.00 0.00 0.00 90 1022.7
20221206061453 60 92 2.0 3.0 0.00 0.00 0.00 90 1022.6
20221206055953 60 109 2.0 4.0 0.00 0.00 0.00 90 1022.7
20221206054453 60 118 4.0 6.0 0.00 0.00 0.00 90 1022.7
20221206052953 60 110 4.0 9.0 0.00 0.00 0.00 90 1022.8
20221206044453 60 94 6.0 9.0 0.00 0.00 0.00 90 1023.5
20221206042953 60 80 3.0 6.0 0.00 0.00 0.00 90 1023.7
20221206041453 60 87 4.0 8.0 0.00 0.00 0.00 90 1023.6
20221206035953 60 96 5.0 9.0 0.00 0.00 0.00 90 1023.5
20221206034453 60 94 5.0 8.0 0.00 0.00 0.00 90 1023.5
20221206032953 60 101 4.0 9.0 0.00 0.00 0.00 89 1023.4
20221206031453 60 82 6.0 9.0 0.00 0.00 0.00 89 1023.3
20221206025954 60 91 7.0 10.0 0.00 0.00 0.00 90 1023.2
20221206021453 59 59 6.0 10.0 0.00 0.00 0.00 89 1023.2
20221206014453 59 110 7.0 13.0 0.00 0.00 0.00 89 1023.0
20221206011452 59 87 8.0 13.0 0.00 0.00 0.00 88 1023.2
20221206005952 59 79 8.0 14.0 0.00 0.00 0.00 88 1023.2
20221206004452 59 89 8.0 14.0 0.00 0.00 0.00 87 1023.2
20221206002952 59 71 7.0 12.0 0.00 0.00 0.00 87 1023.1
20221206001452 58 111 8.0 15.0 0.00 0.00 0.00 87 1023.0
20221205235952 58 88 7.0 13.0 0.00 0.00 0.00 86 1023.0
20221205234452 58 98 7.0 16.0 0.00 0.00 0.00 86 1023.0
20221205232952 58 67 6.0 12.0 0.00 0.00 0.00 86 1023.0
20221205225952 57 87 5.0 11.0 0.00 0.00 0.00 85 1022.9
20221205224452 57 65 8.0 14.0 0.00 0.00 0.00 84 1022.8
20221205222952 57 92 5.0 12.0 0.00 0.00 0.00 84 1023.0
20221205221452 57 76 5.0 14.0 0.00 0.00 0.00 83 1022.7
20221205214452 57 77 5.0 12.0 0.00 0.00 0.00 82 1022.8
20221205212952 57 42 7.0 14.0 0.00 0.00 0.00 81 1022.8
20221205211452 57 63 8.0 15.0 0.00 0.00 0.00 80 1022.8
20221205205952 57 51 8.0 14.0 0.00 0.00 0.00 80 1023.0
20221205204451 57 44 8.0 15.0 0.00 0.00 0.00 79 1023.0
20221205202952 57 65 8.0 15.0 0.00 0.00 0.00 79 1022.9
20221205201452 58 60 10.0 16.0 0.00 0.00 0.00 78 1023.0
20221205195952 58 64 10.0 15.0 0.00 0.00 0.00 78 1022.7
20221205194452 58 38 9.0 15.0 0.00 0.00 0.00 77 1022.8
20221205192953 57 55 11.0 18.0 0.00 0.00 0.00 78 1022.6
20221205185953 57 52 11.0 17.0 0.00 0.00 0.00 77 1022.6
20221205184452 57 64 11.0 17.0 0.00 0.00 0.00 76 1022.9
20221205182952 57 61 10.0 17.0 0.00 0.00 0.00 76 1023.1
20221205181452 57 58 10.0 17.0 0.00 0.00 0.00 76 1023.2
20221205175953 57 44 11.0 16.0 0.00 0.00 0.00 76 1023.2
20221205174455 57 61 11.0 18.0 0.00 0.00 0.00 75 1023.1
20221205171452 57 55 9.0 15.0 0.00 0.00 0.00 74 1023.4
20221205165953 58 60 11.0 17.0 0.00 0.00 0.00 74 1023.7
20221205164452 58 44 10.0 16.0 0.00 0.00 0.00 73 1023.9
20221205162952 58 38 10.0 18.0 0.00 0.00 0.00 73 1024.1
20221205155953 58 36 9.0 17.0 0.00 0.00 0.00 73 1024.3
20221205154451 57 49 9.0 14.0 0.00 0.00 0.00 73 1024.4
20221205152952 57 53 10.0 17.0 0.00 0.00 0.00 73 1024.5
20221205151452 57 72 8.0 16.0 0.00 0.00 0.00 73 1024.5
20221205145952 57 57 9.0 14.0 0.00 0.00 0.00 73 1024.6
20221205144452 56 49 10.0 15.0 0.00 0.00 0.00 74 1024.6
20221205142952 56 33 9.0 16.0 0.00 0.00 0.00 74 1024.6
20221205141452 56 329 8.0 14.0 0.00 0.00 0.00 74 1024.5
20221205135952 56 30 8.0 14.0 0.00 0.00 0.00 74 1024.4
20221205134453 55 59 8.0 14.0 0.00 0.00 0.00 75 1024.3
20221205132954 54 59 8.0 14.0 0.00 0.00 0.00 75 1024.2
20221205124452 52 38 7.0 12.0 0.00 0.00 0.00 78 1023.7
20221205122953 51 41 6.0 14.0 0.00 0.00 0.00 78 1023.5
20221205121453 51 36 7.0 13.0 0.00 0.00 0.00 78 1023.5
20221205115953 51 67 7.0 13.0 0.00 0.00 0.00 77 1023.3
20221205114453 51 67 8.0 13.0 0.00 0.00 0.00 77 1022.9
20221205112953 51 68 7.0 15.0 0.00 0.00 0.00 77 1023.0
20221205111453 51 53 8.0 17.0 0.00 0.00 0.00 77 1022.9
20221205104453 51 73 7.0 14.0 0.00 0.01 0.00 77 1022.7
20221205102953 51 73 8.0 14.0 0.00 0.01 0.00 77 1022.6